Weather History for Middlesboro, KY

Change the Weather History Date:

Tuesday, May 8, 2012

  Actual Average (KLOZ) Record (KLOZ)
Temperature  
Mean Temperature 72 °F 63 °F  
Max Temperature 80 °F 75 °F 86 °F (1964)
Min Temperature 64 °F 51 °F 32 °F (1989)
Degree Days  
Heating Degree Days 0 4  
Month to date heating degree days 36  
Since 1 July heating degree days 4137  
Cooling Degree Days 7 2  
Month to date cooling degree days 11  
Year to date cooling degree days 37  
Growing Degree Days 22 (Base 50)    
Moisture  
Dew Point 66 °F    
Average Humidity 83    
Maximum Humidity 100    
Minimum Humidity 61    
Precipitation  
Precipitation 0.00 in 0.17 in 1.57 in (1972)
Month to date precipitation 1.28  
Year to date precipitation 16.63  
Sea Level Pressure  
Sea Level Pressure 29.89 in    
Wind  
Wind Speed 2 mph (West)    
Max Wind Speed 13 mph    
Max Gust Speed 18 mph    
Visibility 9 miles    
Events Rain    
T = Trace of Precipitation, MM = Missing Value Source: NWS Daily Summary

Daily Weather History Graph

Daily Weather History Graph

Search for Another Location

Airport:

Trip Planner

Search our weather history database for the weather conditions in past years. The results will help you decide how hot, cold, wet, or windy it might be!

Date:

Astronomy

May. 08, 2012 Rise Set
Actual Time 5:33 AM CDT 7:29 PM CDT
Civil Twilight 5:05 AM CDT 7:58 PM CDT
Nautical Twilight 4:30 AM CDT 8:32 PM CDT
Astronomical Twilight 3:54 AM CDT 9:09 PM CDT
Moon 10:37 PM CDT (5/8) 7:42 AM CDT (5/8)
Length of Visible Light 14h 52m
Length of Day
13h 56m
Waning Gibbous, 90% of the Moon is Illuminated
May 8
Waning Gibbous
May 12
Last Quarter
May 20
New
May 28
First Quarter
Jun 4
Full

Hourly Weather History & Observations

Time (CDT) Temp. Heat Index Dew Point Humidity Pressure Visibility Wind Dir Wind Speed Gust Speed Precip Events Conditions
12:35 AM 68.0 °F - 66.2 °F 94% 29.88 in 7.0 mi Calm Calm - N/A   Overcast
12:55 AM 68.0 °F - 66.2 °F 94% 29.87 in 7.0 mi Calm Calm - N/A   Mostly Cloudy
1:15 AM 68.0 °F - 66.2 °F 94% 29.87 in 5.0 mi Calm Calm - N/A   Scattered Clouds
1:35 AM 66.2 °F - 66.2 °F 100% 29.87 in 5.0 mi Calm Calm - N/A   Mostly Cloudy
1:55 AM 68.0 °F - 66.2 °F 94% 29.87 in 5.0 mi Calm Calm - N/A   Overcast
2:15 AM 69.8 °F - 68.0 °F 94% 29.86 in 10.0 mi SW 3.5 mph - N/A Rain Light Rain
2:35 AM 68.0 °F - 66.2 °F 94% 29.87 in 10.0 mi Calm Calm - N/A   Scattered Clouds
2:55 AM 69.8 °F - 66.2 °F 88% 29.87 in 10.0 mi WSW 6.9 mph - N/A Rain Light Rain
3:15 AM 69.8 °F - 68.0 °F 94% 29.88 in 7.0 mi Calm Calm - N/A Rain Light Rain
3:35 AM 69.8 °F - 66.2 °F 88% 29.88 in 7.0 mi SSW 12.7 mph 18.4 mph N/A Rain Rain
3:55 AM 69.8 °F - 66.2 °F 88% 29.88 in 10.0 mi SW 3.5 mph - N/A Rain Rain
4:15 AM 68.0 °F - 66.2 °F 94% 29.87 in 10.0 mi South 5.8 mph - N/A Rain Light Rain
4:35 AM 68.0 °F - 66.2 °F 94% 29.88 in 10.0 mi SSW 4.6 mph - N/A Rain Light Rain
4:55 AM 68.0 °F - 66.2 °F 94% 29.88 in 10.0 mi SSW 4.6 mph - N/A Rain Light Rain
5:15 AM 68.0 °F - 66.2 °F 94% 29.88 in 10.0 mi Calm Calm - N/A   Mostly Cloudy
5:35 AM 66.2 °F - 66.2 °F 100% 29.88 in 10.0 mi Calm Calm - N/A   Mostly Cloudy
5:55 AM 66.2 °F - 64.4 °F 94% 29.89 in 5.0 mi Calm Calm - N/A   Scattered Clouds
6:15 AM 66.2 °F - 64.4 °F 94% 29.89 in 5.0 mi Calm Calm - N/A   Clear
6:35 AM 66.2 °F - 64.4 °F 94% 29.90 in 7.0 mi Calm Calm - N/A   Mostly Cloudy
6:55 AM 66.2 °F - 66.2 °F 100% 29.90 in 10.0 mi Calm Calm - N/A   Scattered Clouds
7:15 AM 69.8 °F - 68.0 °F 94% 29.90 in 10.0 mi Calm Calm - N/A   Clear
7:55 AM 71.6 °F - 66.2 °F 83% 29.91 in 10.0 mi Calm Calm - N/A   Overcast
8:15 AM 69.8 °F - 66.2 °F 88% 29.91 in 4.0 mi Calm Calm - N/A Rain Light Rain
8:35 AM 69.8 °F - 68.0 °F 94% 29.91 in 10.0 mi Calm Calm - N/A   Overcast
8:55 AM 71.6 °F - 66.2 °F 83% 29.91 in 10.0 mi Calm Calm - N/A   Overcast
9:15 AM 71.6 °F - 66.2 °F 83% 29.91 in 10.0 mi WSW 4.6 mph - N/A   Overcast
9:35 AM 73.4 °F - 66.2 °F 78% 29.91 in 10.0 mi WSW 5.8 mph - N/A   Mostly Cloudy
9:55 AM 73.4 °F - 66.2 °F 78% 29.91 in 10.0 mi West 3.5 mph - N/A   Mostly Cloudy
10:15 AM 73.4 °F - 66.2 °F 78% 29.91 in 10.0 mi Calm Calm - N/A   Mostly Cloudy
10:35 AM 73.4 °F - 66.2 °F 78% 29.92 in 10.0 mi West 4.6 mph - N/A Rain Light Rain
10:55 AM 73.4 °F - 66.2 °F 78% 29.91 in 10.0 mi West 4.6 mph - N/A   Scattered Clouds
11:15 AM 75.2 °F - 66.2 °F 73% 29.91 in 10.0 mi WSW 6.9 mph - N/A   Mostly Cloudy
11:35 AM 77.0 °F - 66.2 °F 69% 29.90 in 10.0 mi West 4.6 mph - N/A   Mostly Cloudy
11:55 AM 75.2 °F - 66.2 °F 73% 29.90 in 10.0 mi WNW 3.5 mph - N/A   Mostly Cloudy
12:15 PM 75.2 °F - 64.4 °F 69% 29.90 in 10.0 mi West 4.6 mph - N/A   Overcast
12:35 PM 73.4 °F - 66.2 °F 78% 29.91 in 10.0 mi West 3.5 mph - N/A   Overcast
12:55 PM 75.2 °F - 66.2 °F 73% 29.91 in 10.0 mi WNW 4.6 mph - N/A   Overcast
1:15 PM 77.0 °F - 66.2 °F 69% 29.90 in 10.0 mi West 3.5 mph - N/A   Overcast
1:35 PM 75.2 °F - 64.4 °F 69% 29.90 in 10.0 mi WNW 8.1 mph 17.3 mph N/A   Overcast
1:55 PM 78.8 °F - 66.2 °F 65% 29.89 in 10.0 mi West 8.1 mph - N/A   Scattered Clouds
2:15 PM 80.6 °F 82.7 °F 66.2 °F 61% 29.88 in 10.0 mi WNW 5.8 mph - N/A   Clear
2:35 PM 80.6 °F 82.7 °F 66.2 °F 61% 29.88 in 10.0 mi West 5.8 mph - N/A   Scattered Clouds
2:55 PM 78.8 °F - 66.2 °F 65% 29.87 in 10.0 mi NW 5.8 mph - N/A   Mostly Cloudy
3:15 PM 75.2 °F - 64.4 °F 69% 29.87 in 10.0 mi WNW 6.9 mph 18.4 mph N/A   Mostly Cloudy
3:35 PM 78.8 °F - 66.2 °F 65% 29.87 in 10.0 mi NNW 5.8 mph - N/A   Clear
3:55 PM 78.8 °F - 66.2 °F 65% 29.87 in 10.0 mi NW 6.9 mph 10.4 mph N/A   Scattered Clouds
4:15 PM 78.8 °F - 66.2 °F 65% 29.88 in 10.0 mi NW 5.8 mph - N/A   Mostly Cloudy
4:55 PM 77.0 °F - 66.2 °F 69% 29.87 in 10.0 mi Calm Calm - N/A   Scattered Clouds
5:15 PM 78.8 °F - 66.2 °F 65% 29.88 in 10.0 mi North 6.9 mph - N/A   Mostly Cloudy
5:35 PM 77.0 °F - 66.2 °F 69% 29.87 in 10.0 mi Calm Calm - N/A   Mostly Cloudy
5:55 PM 75.2 °F - 66.2 °F 73% 29.87 in 10.0 mi North - - N/A   Scattered Clouds
6:15 PM 75.2 °F - 66.2 °F 73% 29.87 in 10.0 mi NNE 4.6 mph - N/A   Scattered Clouds
6:35 PM 73.4 °F - 66.2 °F 78% 29.87 in 10.0 mi NE 5.8 mph - N/A   Scattered Clouds
6:55 PM 71.6 °F - 66.2 °F 83% 29.87 in 10.0 mi North - - N/A   Scattered Clouds
7:35 PM 71.6 °F - 66.2 °F 83% 29.88 in 10.0 mi Calm Calm - N/A   Mostly Cloudy
7:55 PM 71.6 °F - 66.2 °F 83% 29.88 in 10.0 mi Calm Calm - N/A   Mostly Cloudy
8:15 PM 69.8 °F - 66.2 °F 88% 29.89 in 10.0 mi Calm Calm - N/A   Mostly Cloudy
8:35 PM 69.8 °F - 64.4 °F 83% 29.91 in 10.0 mi Calm Calm - N/A   Scattered Clouds
8:55 PM 69.8 °F - 64.4 °F 83% 29.92 in 10.0 mi Calm Calm - N/A   Scattered Clouds
9:15 PM 68.0 °F - 64.4 °F 88% 29.92 in 10.0 mi Calm Calm - N/A   Mostly Cloudy
9:35 PM 66.2 °F - 66.2 °F 100% 29.93 in 10.0 mi Calm Calm - N/A   Mostly Cloudy
9:55 PM 66.2 °F - 64.4 °F 94% 29.93 in 10.0 mi Calm Calm - N/A   Mostly Cloudy
10:15 PM 66.2 °F - 64.4 °F 94% 29.93 in 10.0 mi Calm Calm - N/A   Scattered Clouds
10:55 PM 64.4 °F - 64.4 °F 100% 29.92 in 10.0 mi Calm Calm - N/A   Mostly Cloudy
11:15 PM 64.4 °F - 64.4 °F 100% 29.91 in 10.0 mi Calm Calm - N/A   Scattered Clouds
11:35 PM 64.4 °F - 64.4 °F 100% 29.91 in 10.0 mi Calm Calm - N/A   Mostly Cloudy
11:55 PM 64.4 °F - 64.4 °F 100% 29.91 in 7.0 mi Calm Calm - N/A   Overcast